Zurück zum Katalog

SECOR 8

EGRS 8

AktivWissenschaftPO
NORAD 2520·PAYLOAD·🇺🇸 United States

Gestartet Oct 5, 1966 von Vandenberg Space Force Base

Loading…

Nächste Überflüge (nächste 24 Stunden)

TLE

AktuellSource: Space-Track

Epoche: Sep 14, 2026, 09:19 UTC

1 02520U 66089B   26257.38832791 -.00000006  00000-0 -39638-2 0  9990
2 02520  89.8569  30.9760 0014362 217.9966 141.9873  8.58893794389618

Verfolge SECOR 8 in Echtzeit mit AllMySat

Download on the App Store